Location: Ammerl�gen
(47.2167°N, 9.6000°E)
Time: 12:31:48
(UTC+00:00)

Cosmos 676 Rocket - Pass Details

Date: 06 August 2021
Orbit: 755 x 783 km, 74.0° (Epoch: 26 September)

Event Time Altitude Azimuth Distance (km) Brightness Sun altitude
Exits shadow 02:22:10 12° 269° (W) 2,222 6.0 -15.1°
Maximum altitude 02:25:26 19° 310° (NW) 1,789 5.9 -14.7°
Drops below altitude 10° 02:29:13 10° 356° (N) 2,346 7.1 -14.3°
Sets 02:32:19 0° 14° (NNE) 3,274 8.3 -13.9°
